AirNav   TITAN Aviation Fuels
 
 1109 users online  

CD02 Skyote Airport
Steamboat Springs, Colorado, USA

GOING TO STEAMBOAT SPRINGS?


FAA INFORMATION EFFECTIVE 11 AUGUST 2022

Location

FAA Identifier: CD02
Lat/Long: 40-45-28.8970N 106-58-19.1860W
40-45.481617N 106-58.319767W
40.7580269,-106.9719961
(estimated)
Elevation: 8200 ft. / 2499 m (estimated)
Variation: 13E (1985)
From city: 18 miles NW of STEAMBOAT SPRINGS, CO
Time zone: UTC -6 (UTC -7 during Standard Time)
Zip code: 80487

Airport Operations

Airport use: Private use. Permission required prior to landing
Activation date: 02/1987
Control tower: no
ARTCC: DENVER CENTER
FSS: DENVER FLIGHT SERVICE STATION
Attendance: UNATNDD
Wind indicator: yes
Segmented circle: no

Airport Communications

WX AWOS-3 at SBS (15 nm S): 118.325 (970-879-7794)

Nearby radio navigation aids

VOR radial/distance  VOR name  Freq  Var
BQZr333/18.2ROBERT VOR/DME112.2013E
CHEr033/20.8HAYDEN VOR/DME115.6014E

Airport Services

Runway Information

Runway 18/36

Dimensions: 1600 x 30 ft. / 488 x 9 m
Surface: turf
RUNWAY 18  RUNWAY 36
Traffic pattern: leftleft

Airport Ownership and Management from official FAA records

Ownership: Privately-owned
Owner: O. E. BARTOE, JR.
PO BOX 808
CLARK, CO 80428
Phone (970) 214-9838
Manager: O. E. BARTOE, JR.
PO BOX 808
CLARK, CO 80428
Phone (970) 214-9838

Airport Operational Statistics

Aircraft based on the field: 1
Single engine airplanes: 1
    

Additional Remarks

ONE WAY ARPT. LAND RY 18 & TAKEOFF RY 36. LCL ARPT KNOWLEDGE RQRD.
FOR CD CTC DENVER ARTCC AT 303-651-4257.

Instrument Procedures

There are no published instrument procedures at CD02.

Some nearby airports with instrument procedures:

KSBS - Steamboat Springs Airport/Bob Adams Field (15 nm S)
KHDN - Yampa Valley Airport (20 nm SW)
KDWX - Dixon Airport (29 nm NW)
KCAG - Craig-Moffat Airport (30 nm SW)
33V - Walden-Jackson County Airport (32 nm E)
 
Loc | Ops | Rwys | IFR | FBO | Links
Com | Nav | Svcs | Stats | Notes

AirBoss

 
Area around CD02 (Skyote Airport)
 
Road maps at: MapQuest Bing Google
 
Aerial photo
No photo
 
Sectional chart

 
Airport distance calculator
Flying to Skyote Airport? Find the distance to fly.

From to CD02

Sunrise and sunset
Times for 16-Aug-2022
 Local
(UTC-6)
 Zulu
(UTC)
Morning civil twilight05:5111:51
Sunrise06:2012:20
Sunset20:0402:04
Evening civil twilight20:3302:33

Current date and time
Zulu (UTC)  17-Aug-2022 02:34:02
Local (UTC-6)  16-Aug-2022 20:34:02
 
METAR
KSBS 
15nm S 
170216Z AUTO 12011G16KT 10SM CLR 18/08 A3030 RMK AO1 T01780079
KHDN 
21nm SW 
170156Z 13017KT 10SM CLR 20/09 A3028 RMK AO2 SLP181 T02000089
KDWX 
29nm NW 
170210Z AUTO 24004KT 10SM CLR 19/M06 A3028 RMK AO2 T01921056
KCAG 
29nm SW 
170153Z AUTO 10011KT 10SM CLR 23/07 A3023 RMK AO2 SLP165 T02280072
TAF
KHDN 
21nm SW 
162154Z 1622/1718 14010G20KT P6SM BKN100 FM162300 14010G18KT P6SM FEW080 SCT100
NOTAMs
Click for the latest NOTAMs
NOTAMs are issued by the DoD/FAA and will open in a separate window not controlled by AirNav.

 

 
 

Would you like to see your business listed on this page?

 If your business provides an interesting product or service to pilots, flight crews, aircraft, or users of the Skyote Airport, you should consider listing it here.  To start the listing process, click on the button below
 
Add a business
 

Other Pages about Skyote Airport

Update a link
 
Copyright © AirNav, LLC. All rights reserved. Privacy Policy  Contact